This demonstration page uses our WeatherBlox Daily Observations layout. Learn more.

Left ArrowRight Arrow

Hourly Observations for April 20, 2017

Temp ( °F °C ) Dew Point ( °F °C ) Humidity (%) Winds ( mph kmh ) Pressure ( in mb ) Visibility ( mi km ) Precip ( " mm )
12:59 am 00:59 Mostly Cloudy 65 18.3 56 13.3 73 73 SSW 9 15 30.23 1024 10 16 0.00 0.00
1:59 am 01:59 Mostly Cloudy 65 18.3 56 13.3 73 73 SW 7 11 30.22 1023 10 16 0.00 0.00
2:59 am 02:59 Cloudy 65 18.3 56 13.3 73 73 SW 8 13 30.19 1023 10 16 0.00 0.00
3:59 am 03:59 Mostly Cloudy 65 18.3 57 13.9 76 76 SSW 9 15 30.18 1022 10 16 0.00 0.00
4:59 am 04:59 Mostly Cloudy 64 17.8 58 14.4 81 81 SW 8 13 30.17 1022 9 14 0.00 0.00
5:29 am 05:29 Mostly Cloudy 63 17.2 58 14.4 84 84 SSW 6 9 30.18 1022 9 14 0.00 0.00
5:56 am 05:56 Mostly Cloudy 63 17 57 14 83 83 SW 6 9 30.18 1022 9 14 0.00 0.00
5:59 am 05:59 Mostly Cloudy 62 16.7 58 14.4 86 86 SW 7 11 30.17 1022 9 14 0.00 0.00
6:59 am 06:59 Partly Cloudy 62 16.7 59 15 90 90 WSW 6 9 30.18 1022 7 11 0.00 0.00
7:59 am 07:59 Partly Cloudy 64 17.8 60 15.6 87 87 SW 10 17 30.18 1022 7 11 0.00 0.00
8:59 am 08:59 Mostly Cloudy 68 20 61 16.1 78 78 SW 9 15 30.17 1022 7 11 0.00 0.00
9:59 am 09:59 Mostly Cloudy 70 21.1 62 16.7 76 76 WSW 12 19 30.16 1021 9 14 0.00 0.00
10:59 am 10:59 Partly Cloudy 74 23.3 62 16.7 67 67 WSW 10 17 30.14 1021 9 14 0.00 0.00
11:59 am 11:59 Partly Cloudy 76 24.4 62 16.7 62 62 SW 13 20 30.11 1020 10 16 0.00 0.00
12:59 pm 12:59 Partly Cloudy 78 25.6 62 16.7 58 58 W 8 13 30.08 1019 10 16 0.00 0.00
1:59 pm 13:59 Partly Cloudy 80 26.7 63 17.2 56 56 W 9 15 30.07 1018 9 14 0.00 0.00
2:59 pm 14:59 Mostly Sunny 82 27.8 63 17.2 53 53 WNW 10 17 30.05 1018 10 16 0.00 0.00
3:59 pm 15:59 Mostly Sunny 82 27.8 62 16.7 51 51 VRB 3 6 30.01 1016 9 14 0.00 0.00
4:59 pm 16:59 Mostly Sunny 84 28.9 62 16.7 48 48 S 5 7 30.00 1016 8 13 0.00 0.00
5:59 pm 17:59 Partly Cloudy 78 25.6 62 16.7 58 58 E 10 17 30.00 1016 9 14 0.00 0.00
6:59 pm 18:59 Partly Cloudy 75 23.9 62 16.7 64 64 SE 6 9 30.00 1016 9 14 0.00 0.00
7:59 pm 19:59 Mostly Cloudy 72 22.2 62 16.7 71 71 ESE 6 9 30.00 1016 9 14 0.00 0.00
8:59 pm 20:59 Mostly Cloudy 73 22.8 62 16.7 69 69 S 6 9 30.01 1016 9 14 0.00 0.00
9:59 pm 21:59 Mostly Cloudy 72 22.2 62 16.7 71 71 S 5 7 30.00 1016 9 14 0.00 0.00
10:59 pm 22:59 Mostly Cloudy 73 22.8 63 17.2 71 71 S 6 9 29.99 1016 9 14 0.00 0.00
11:59 pm 23:59 Mostly Cloudy 74 23.3 63 17.2 69 69 SW 6 9 29.99 1016 9 14 0.00 0.00

Powered by AerisWeather